Time,B instrument,Bx,By,Bz,sigma B,Ion instrument,Status,Tp_par,Tp_perp,carrot,r_sun,clat,clong,earth_he_angle,n_p,vp_x,vp_y,vp_z,vth_p_par,vth_p_perp
1980-11-05 00:05:34,-1,nan,nan,nan,nan,1,3,nan,nan,1701,0.62820876,-6.4574909,281.49118,96.530243,nan,305.006,13.4077,31.4607,nan,nan
1980-11-05 00:48:46,-1,nan,nan,nan,nan,1,3,nan,nan,1701,0.62786597,-6.460392,281.11792,96.551498,nan,330.234,-6.98779,24.1198,nan,nan
1980-11-05 01:31:58,-1,nan,nan,nan,nan,1,3,nan,nan,1701,0.62752312,-6.4632902,280.74469,96.572815,nan,332.517,-7.89135,22.6279,nan,nan
1980-11-05 02:58:22,-1,nan,nan,nan,nan,1,3,nan,nan,1701,0.62682891,-6.4691496,279.995,96.616089,nan,331.445,0.850105,9.88891,nan,nan
1980-11-05 03:17:26,-1,nan,nan,nan,nan,1,4,nan,nan,1701,0.62667722,-6.4704275,279.83264,96.625595,nan,nan,nan,nan,nan,nan
1980-11-05 05:08:51,-1,nan,nan,nan,nan,1,3,nan,nan,1701,0.62579024,-6.4778843,278.86874,96.681229,nan,344.596,21.6307,19.0507,nan,nan
1980-11-05 05:12:18,-1,nan,nan,nan,nan,1,3,nan,nan,1701,0.62575829,-6.4781532,278.83951,96.683243,nan,348.526,15.1037,-5.343,nan,nan
1980-11-05 05:13:39,-1,nan,nan,nan,nan,1,3,nan,nan,1701,0.62575024,-6.47822,278.82437,96.683746,nan,351.907,20.1473,62.0124,nan,nan
1980-11-05 05:15:00,-1,nan,nan,nan,nan,1,3,nan,nan,1701,0.62573427,-6.4783545,278.81366,96.684738,nan,346.647,13.4878,64.8152,nan,nan
1980-11-05 05:17:33,-1,nan,nan,nan,nan,1,3,nan,nan,1701,0.6257183,-6.4784889,278.79123,96.68576,nan,346.837,9.72643,51.439,nan,nan
1980-11-05 05:18:54,1,-14.6143,15.5143,5.01429,0.303718,1,1,74500.3,99501.4,1701,0.62571025,-6.4785557,278.78003,96.686264,25.7553,345.193,12.6556,49.4527,35.0701,40.5296
1980-11-05 05:20:16,1,-14.4286,16.0429,4.15714,0.394348,1,1,57606.5,89294.8,1701,0.62569427,-6.4786901,278.76932,96.687271,23.569,345.416,19.1154,51.5799,30.8385,38.3947
1980-11-05 05:21:37,1,-14.5429,15.9571,3.52857,0.743406,1,1,66183.1,93088.1,1701,0.62568629,-6.4787569,278.75809,96.687775,24.9569,341.251,17.496,46.1609,33.0546,39.2017
1980-11-05 05:22:58,1,-14.2143,14.8714,6.34286,1.16005,1,1,71221.0,98174.7,1701,0.6256783,-6.4788246,278.74689,96.688278,25.0438,343.058,15.8008,56.4392,34.2896,40.2585
1980-11-05 05:24:19,1,-14.1857,13.7429,8.0,0.268784,1,1,76614.5,104521.0,1701,0.62566233,-6.4789581,278.73227,96.689285,25.1403,346.498,13.1888,56.4653,35.5642,41.5394
1980-11-05 05:25:40,1,-14.4286,13.7714,7.54286,0.605418,1,1,80018.4,96369.6,1701,0.62565428,-6.4790258,278.72104,96.689789,27.0375,338.222,11.6447,56.3536,36.3457,39.8867
1980-11-05 05:27:01,1,-11.9857,14.7286,8.37143,0.905313,1,1,74900.2,94518.6,1701,0.62563831,-6.4791594,278.71033,96.690796,25.0015,354.898,19.7374,58.1459,35.1641,39.5018
1980-11-05 05:28:22,1,-15.3429,13.3143,4.51429,1.19608,1,1,78618.5,98444.0,1701,0.62563032,-6.4792271,278.69913,96.691299,25.5476,336.157,11.3483,45.7954,36.0264,40.3137
1980-11-05 05:29:43,1,-16.5429,12.5714,1.57143,0.823383,1,1,72164.2,91133.2,1701,0.62562233,-6.4792938,278.6879,96.691803,26.7553,337.081,10.5072,38.6324,34.5159,38.7879
1980-11-05 05:31:04,1,-18.6571,10.2571,-1.41429,0.342857,1,1,98892.1,112480.0,1701,0.6256063,-6.4794283,278.67719,96.69281,27.914,331.055,5.75024,29.081,40.4053,43.092
1980-11-05 05:32:25,1,-16.6429,12.2143,3.65714,0.67431,1,1,76059.0,98454.7,1701,0.62559831,-6.479495,278.66208,96.693314,26.7121,337.72,10.5571,45.4717,35.4351,40.3159
1980-11-05 05:33:46,1,-17.8286,10.8143,3.51429,0.608444,1,1,69796.9,94853.9,1701,0.62559032,-6.4795628,278.65085,96.693817,25.3782,334.204,9.01777,41.0255,33.945,39.5718
1980-11-05 05:35:07,1,-16.7857,12.1714,2.44286,0.507093,1,1,76042.0,91393.8,1701,0.62557435,-6.4796963,278.64014,96.694824,25.3167,338.568,16.695,38.4789,35.4311,38.8433
1980-11-05 05:36:28,1,-16.2857,12.6143,2.14286,1.57636,1,1,74583.4,90330.0,1701,0.62556636,-6.479764,278.62894,96.695328,25.8462,338.625,16.1058,34.3406,35.0896,38.6166
1980-11-05 05:37:49,1,-17.6857,11.5286,0.142857,0.370328,1,1,74431.3,91300.7,1701,0.62555832,-6.4798307,278.61771,96.695831,26.7454,334.594,12.9904,30.8542,35.0538,38.8235
1980-11-05 05:39:10,1,-16.3714,12.3,2.78571,1.57221,1,1,90856.0,99479.3,1701,0.62554234,-6.4799652,278.60699,96.696838,28.1782,348.862,25.2519,34.2037,38.7289,40.5251
1980-11-05 05:42:09,-1,nan,nan,nan,nan,1,4,nan,nan,1701,0.62551838,-6.4801664,278.58118,96.698349,nan,nan,nan,nan,nan,nan
1980-11-05 05:43:30,1,-18.1,10.75,2.73333,0.5047,1,1,69371.8,90870.0,1701,0.62551033,-6.4802332,278.56604,96.698853,25.2069,336.864,16.3869,31.2068,33.8415,38.7319
1980-11-05 05:44:51,1,-17.8,11.3286,2.25714,0.90644,1,1,66268.4,90306.6,1701,0.62550235,-6.4803009,278.55484,96.699356,24.7852,338.647,18.9825,27.4143,33.0759,38.6116
1980-11-05 05:46:12,1,-17.4143,11.2714,2.72857,0.742307,1,1,76325.7,96040.4,1701,0.62548637,-6.4804344,278.54413,96.700363,26.1707,339.536,15.132,30.6545,35.4971,39.8185
1980-11-05 05:47:16,1,-15.8714,13.1429,1.67143,0.49073,1,1,76019.3,91201.1,1701,0.62547839,-6.4805021,278.5368,96.700867,25.6908,344.553,20.8267,31.2384,35.4258,38.8023
1980-11-05 05:48:37,1,-16.9714,11.6571,3.02857,0.798723,1,1,79413.7,87858.7,1701,0.62547034,-6.4805689,278.5217,96.70137,26.1546,341.481,17.4832,33.1815,36.2081,38.0847
1980-11-05 05:49:58,1,-16.9143,11.6429,3.0,0.926261,1,1,76885.0,89209.4,1701,0.62546235,-6.4806366,278.51047,96.701874,26.3856,344.122,21.3073,28.0213,35.627,38.3763
1980-11-05 05:51:19,1,-16.7,11.9429,3.77143,0.559519,1,1,68833.5,90000.5,1701,0.62544638,-6.4807701,278.49976,96.702881,25.7254,342.762,18.1389,34.9701,33.7099,38.5461
1980-11-05 05:52:40,1,-19.2429,9.05714,2.71429,1.0242,1,1,60142.4,82623.6,1701,0.62543839,-6.4808378,278.48856,96.703384,23.0503,336.821,17.7984,32.3428,31.51,36.9326
1980-11-05 05:54:01,1,-17.3,11.9286,1.12857,0.74724,1,1,61549.2,87885.3,1701,0.62542242,-6.4809713,278.47784,96.704391,25.5018,334.965,15.3088,28.9416,31.8764,38.0905
1980-11-05 06:57:09,-1,nan,nan,nan,nan,1,3,nan,nan,1701,0.62491822,-6.4851961,277.93152,96.736206,nan,350.436,24.7886,24.2305,nan,nan
1980-11-05 06:58:30,1,-17.6,9.44286,7.21429,0.308386,1,1,68551.7,88212.1,1701,0.62491024,-6.4852629,277.92032,96.73671,29.9276,353.017,25.1264,29.9036,33.6409,38.1612
1980-11-05 06:59:51,1,-16.725,11.15,5.95,0.476314,1,1,74501.6,86215.0,1701,0.62490225,-6.4853296,277.90909,96.737213,31.5725,355.765,29.991,26.0144,35.0704,37.7267
1980-11-05 07:01:12,1,-17.9143,9.64286,6.62857,1.7188,1,1,77672.4,87040.2,1701,0.62488621,-6.4854641,277.8945,96.738235,31.9716,357.762,36.37,17.0871,35.8089,37.9069
1980-11-05 07:02:34,1,-18.3143,8.82857,7.82857,1.17091,1,1,69960.0,91907.4,1701,0.62487823,-6.4855309,277.88327,96.738739,30.5902,350.853,27.6195,29.3254,33.9846,38.9523
1980-11-05 07:03:55,1,-18.2143,8.5,7.74286,0.529921,1,1,71450.9,90634.8,1701,0.62487018,-6.4855976,277.87207,96.739243,30.1675,350.088,26.7414,31.0102,34.3449,38.6817
1980-11-05 07:05:16,1,-16.8571,10.1857,7.38571,1.68499,1,1,70956.6,90372.6,1701,0.62485421,-6.4857321,277.86136,96.740265,30.4204,350.485,27.394,32.4881,34.2259,38.6257
1980-11-05 07:06:37,1,-14.3429,12.8714,6.91429,0.558058,1,1,81910.5,95814.5,1701,0.62484616,-6.4857988,277.85016,96.740768,31.8849,377.711,-18.2384,26.5113,36.7729,39.7716
1980-11-05 07:07:57,1,-16.1,11.4571,5.75714,1.84678,1,1,81941.2,88105.1,1701,0.62483817,-6.4858656,277.83893,96.741272,31.9735,361.337,37.2165,23.3089,36.7798,38.1381
1980-11-05 07:09:18,1,-20.8833,4.03333,5.3,0.879552,1,1,71407.4,89121.8,1701,0.62482214,-6.4860001,277.82434,96.742294,30.1708,340.789,10.2793,27.9161,34.3344,38.3575
1980-11-05 07:10:39,1,-18.075,7.8875,7.35,0.636764,1,1,79801.9,96290.1,1701,0.62481415,-6.4860668,277.81311,96.742798,35.0989,348.454,21.6629,27.9896,36.2965,39.8702
1980-11-05 07:12:00,1,-17.7857,7.4,8.3,0.92956,1,1,78906.2,88785.5,1701,0.62479812,-6.4862003,277.8024,96.743805,31.2375,350.833,23.9364,29.8807,36.0922,38.285
1980-11-05 07:13:22,1,-17.8857,8.42857,7.02857,0.667313,1,1,80876.3,87533.3,1701,0.62479013,-6.486268,277.7912,96.744324,31.2401,350.836,23.8239,30.2086,36.54,38.0141
1980-11-05 07:14:43,1,-15.6714,11.8429,5.84286,0.622044,1,1,72189.8,91043.1,1701,0.62478209,-6.4863348,277.78,96.744827,31.5398,355.641,36.7526,25.4587,34.522,38.7687
1980-11-05 07:16:04,1,-16.3571,11.3286,5.44286,1.07627,1,1,78570.1,88882.4,1701,0.62476611,-6.4864693,277.76929,96.74585,31.4321,352.722,31.9463,20.645,36.0153,38.3059
1980-11-05 07:17:25,1,-16.8571,10.6143,6.17143,1.27167,1,1,76151.3,87517.1,1701,0.62475806,-6.486536,277.75418,96.746353,31.0525,354.928,34.9063,22.4393,35.4565,38.0106
1980-11-05 07:18:46,1,-17.1286,11.7429,1.64286,0.758624,1,1,81856.0,85548.8,1701,0.62475008,-6.4866028,277.74295,96.746857,30.2907,351.165,35.2504,9.52011,36.7606,37.5807
1980-11-05 07:20:07,1,-14.6143,13.8714,2.51429,1.08044,1,1,79903.7,89472.7,1701,0.62473404,-6.4867373,277.73227,96.747879,32.8653,359.384,38.0893,15.8689,36.3196,38.4329
1980-11-05 07:21:28,1,-15.6143,12.1714,4.5,0.803817,1,1,91138.2,89137.9,1701,0.62472606,-6.486804,277.72104,96.748383,33.4378,355.874,32.4842,22.5219,38.789,38.3609
1980-11-05 07:22:49,1,-16.7143,11.0857,4.01429,0.674613,1,1,78199.4,84777.8,1701,0.62471801,-6.4868708,277.70984,96.748886,31.549,354.633,32.2,22.9664,35.9302,37.411
1980-11-05 07:24:10,1,-16.0,11.9,5.04286,0.580288,1,1,76740.3,89827.3,1701,0.62470204,-6.4870052,277.69913,96.749908,32.9801,354.301,34.0185,22.8074,35.5934,38.509
1980-11-05 07:25:31,1,-16.3857,11.7,3.78571,0.413546,1,1,73857.5,88998.4,1701,0.62469399,-6.487072,277.68402,96.750412,32.0352,354.471,33.3193,22.3144,34.9185,38.3309
1980-11-05 07:26:52,1,-15.7571,12.6857,3.05714,1.37128,1,1,83928.0,92401.0,1701,0.624686,-6.4871387,277.67279,96.750916,34.9583,360.083,36.6665,20.6668,37.223,39.0568
1980-11-05 07:28:13,1,-17.3,11.0143,3.7,0.513889,1,1,76644.2,89322.9,1701,0.62466997,-6.4872732,277.66211,96.751938,33.2836,353.726,32.448,20.9904,35.5711,38.4007
1980-11-05 07:29:33,1,-17.8571,10.5286,4.1,0.376341,1,1,73264.0,89710.5,1701,0.62466198,-6.48734,277.65088,96.752441,31.9375,350.873,27.6441,25.382,34.7779,38.4839
1980-11-05 07:33:37,1,-21.8,1.95,5.8,0.665207,1,1,80513.3,91475.2,1701,0.62463796,-6.4875412,277.61334,96.753967,32.3437,352.469,27.148,28.5131,36.4579,38.8606
1980-11-05 07:33:45,1,-21.8143,1.8,6.2,0.959804,1,1,84940.0,90213.0,1701,0.62462991,-6.487608,277.61386,96.754471,33.041,346.933,16.5987,37.6826,37.4467,38.5916
1980-11-05 07:34:58,1,-20.7429,5.08571,6.6,0.885253,1,1,84376.8,94099.1,1701,0.6263414,-6.6129069,277.26169,96.414032,30.7079,341.395,16.9436,36.2458,37.3224,39.414
1980-11-05 07:35:06,1,-20.7429,5.21429,6.52857,0.840068,1,1,96292.7,94023.1,1701,0.62461394,-6.4877415,277.60315,96.755478,28.5726,337.321,19.2561,36.5584,39.8708,39.3981
1980-11-05 07:36:19,1,-21.0429,3.85714,6.38571,0.872014,1,1,82333.0,88073.8,1701,0.62460589,-6.4878092,277.59195,96.755997,30.5765,345.731,20.7294,33.1829,36.8676,38.1313
1980-11-05 07:37:40,1,-20.2857,6.35714,5.48571,0.402543,1,1,97713.6,88274.8,1701,0.62459791,-6.4878759,277.58072,96.7565,30.7553,349.022,27.3305,32.6282,40.1638,38.1748
1980-11-05 07:39:01,1,-19.9143,6.24286,6.42857,0.282843,1,1,82878.6,89761.0,1701,0.62458187,-6.4880095,277.57001,96.757507,30.6649,346.564,26.4806,32.4954,36.9896,38.4948
1980-11-05 07:40:22,1,-20.2143,6.48571,5.24286,1.21739,1,1,105378.0,93298.8,1701,0.62457389,-6.4880772,277.55881,96.758026,31.4616,346.426,29.6232,31.7285,41.7093,39.246
1980-11-05 07:41:43,-1,nan,nan,nan,nan,1,3,nan,nan,1701,0.62456584,-6.4881439,277.54761,96.75853,nan,347.817,29.3403,36.3485,nan,nan
1980-11-05 07:43:04,-1,nan,nan,nan,nan,1,3,nan,nan,1701,0.62454987,-6.4882774,277.53299,96.759537,nan,370.413,47.8051,19.9358,nan,nan
1980-11-05 07:47:07,-1,nan,nan,nan,nan,1,3,nan,nan,1701,0.6245178,-6.4885454,277.49985,96.761566,nan,403.901,44.4657,-6.70318,nan,nan
1980-11-05 07:48:28,-1,nan,nan,nan,nan,1,3,nan,nan,1701,0.62450981,-6.4886131,277.48865,96.762085,nan,360.487,26.148,44.9859,nan,nan
1980-11-05 07:49:49,-1,nan,nan,nan,nan,1,3,nan,nan,1701,0.62450176,-6.4886799,277.47745,96.762589,nan,358.132,15.7607,42.4297,nan,nan
1980-11-05 07:51:10,-1,nan,nan,nan,nan,1,3,nan,nan,1701,0.62448579,-6.4888134,277.46283,96.763596,nan,362.143,23.0624,44.6159,nan,nan
1980-11-05 07:52:31,1,-16.7286,9.94286,11.3,1.67466,1,1,62177.4,78876.7,1701,0.62447774,-6.4888811,277.45163,96.764114,22.6494,367.173,37.0452,38.0221,32.0386,36.0855
1980-11-05 07:53:52,1,-13.9286,10.0857,7.94286,2.97465,1,1,124101.0,152604.0,1701,0.62446976,-6.4889479,277.4404,96.764618,26.8283,370.16,43.0963,43.9911,45.2633,50.1927
1980-11-05 07:55:13,1,-13.1125,-7.9625,14.9125,5.76451,1,1,74253.9,85484.3,1701,0.62445372,-6.4890814,277.42969,96.765625,13.4651,368.968,27.8115,64.3171,35.012,37.5665
1980-11-05 07:56:34,1,-8.1375,-17.1,12.1875,1.05401,1,1,97879.1,139522.0,1701,0.62444574,-6.4891491,277.41849,96.766144,21.1423,386.477,-51.6425,45.4701,40.1979,47.9931
1980-11-05 07:57:55,1,-4.3,-19.6375,10.3125,0.823673,1,1,96678.2,122262.0,1701,0.62443775,-6.4892159,277.40729,96.766647,23.9147,391.737,-53.2735,52.5999,39.9505,44.9266
1980-11-05 07:59:16,1,-4.85,-18.9125,10.9625,0.850551,1,1,117981.0,130626.0,1701,0.62442172,-6.4893494,277.39267,96.767654,23.7266,391.53,-51.8238,43.7149,44.1331,46.4378
1980-11-05 08:00:37,1,-12.6714,-11.7,13.0143,0.534904,1,1,115895.0,126248.0,1701,0.62441367,-6.4894171,277.38147,96.768173,23.5246,368.864,-23.3053,61.795,43.7411,45.6532
1980-11-05 08:01:58,1,-14.1429,3.01429,10.5286,1.83147,1,1,131343.0,213819.0,1701,0.62440568,-6.4894838,277.37024,96.768677,20.8337,380.221,-9.63991,44.9659,46.5651,59.4129
1980-11-05 08:03:19,1,-16.1143,4.3,9.07143,1.20136,1,1,179270.0,248908.0,1701,0.62438965,-6.4896173,277.35956,96.769699,24.4797,371.004,-7.53019,31.036,54.4016,64.1029
1980-11-05 08:06:01,-1,nan,nan,nan,nan,1,4,nan,nan,1701,0.62436563,-6.4898186,277.33765,96.771225,nan,nan,nan,nan,nan,nan
1980-11-05 08:07:21,-1,nan,nan,nan,nan,1,3,nan,nan,1701,0.62435758,-6.4898853,277.32251,96.771729,nan,377.274,-20.6317,37.1833,nan,nan
1980-11-05 08:08:42,1,-15.0,-3.45,10.825,1.24373,1,1,132829.0,210856.0,1701,0.62434959,-6.4899521,277.31131,96.772232,19.1133,371.222,-37.1852,45.4543,46.8279,58.9999
1980-11-05 08:10:03,-1,nan,nan,nan,nan,1,4,nan,nan,1701,0.62433356,-6.4900856,277.3006,96.773254,nan,nan,nan,nan,nan,nan
1980-11-05 08:11:24,1,-15.2571,-0.671429,10.1143,1.24786,1,1,138600.0,201837.0,1701,0.62432557,-6.4901533,277.2894,96.773758,20.091,375.41,-41.5705,45.8631,47.8343,57.7242
1980-11-05 08:12:46,1,-14.425,-6.5125,11.8,1.20746,1,1,200094.0,229309.0,1701,0.62431753,-6.4902201,277.2782,96.774277,24.57,392.555,-45.1519,51.747,57.4745,61.5274
1980-11-05 08:14:07,1,-13.35,-2.925,12.7,2.34507,1,1,131835.0,198410.0,1701,0.62430149,-6.4903536,277.26749,96.775284,21.1466,383.96,-57.301,61.8181,46.6524,57.2321
1980-11-05 08:15:28,1,-13.1625,-0.25,11.55,7.14509,1,1,175153.0,207524.0,1701,0.62429351,-6.4904203,277.25238,96.775803,24.1288,387.031,-24.3232,55.7639,53.7732,58.5318
1980-11-05 08:16:49,1,-12.825,-7.475,12.8375,1.22008,1,1,403565.0,217493.0,1701,0.62428552,-6.4904871,277.24115,96.776306,31.7504,390.301,-55.5053,51.902,81.6233,59.9212
1980-11-05 08:18:10,1,-13.825,-1.1,13.0375,1.39076,1,1,223267.0,192283.0,1701,0.62426949,-6.4906216,277.23047,96.777328,23.494,396.838,-19.2135,53.0344,60.7114,56.3415
1980-11-05 08:19:31,1,-14.6,-1.2,12.5143,3.96536,1,1,120446.0,199930.0,1701,0.62426144,-6.4906883,277.21924,96.777832,22.5902,365.432,-57.8243,29.8638,44.5916,57.4509
1980-11-05 08:20:52,1,-14.0875,-1.8125,13.7875,0.879364,1,1,185494.0,181613.0,1701,0.62425345,-6.4907551,277.20804,96.778351,21.6645,389.008,-29.4076,55.2093,55.3379,54.756
1980-11-05 08:22:13,1,-11.6625,0.8625,14.7,1.57946,1,1,124829.0,206644.0,1701,0.62423742,-6.4908895,277.19733,96.779358,21.7154,390.922,-30.3909,60.8458,45.3959,58.4075
1980-11-05 08:23:34,1,-11.9375,-0.475,14.8125,1.34455,1,1,117878.0,192367.0,1701,0.62422943,-6.4909563,277.18222,96.779877,19.3976,391.844,-21.5359,66.1751,44.1139,56.3538
1980-11-05 08:24:55,1,-8.9,-0.3875,16.975,1.12826,1,1,115104.0,191667.0,1701,0.62422138,-6.4910231,277.17102,96.78038,19.1689,407.105,-34.4355,74.5414,43.5917,56.2512
1980-11-05 08:26:16,1,-14.3125,-2.5125,13.3,1.25984,1,1,156323.0,191093.0,1701,0.62420535,-6.4911566,277.16031,96.781403,21.4448,385.195,-34.4966,57.3416,50.8007,56.1669
1980-11-05 08:27:37,1,-15.7125,-1.4375,12.0375,1.01281,1,1,149311.0,208285.0,1701,0.62419736,-6.4912233,277.14911,96.781906,22.6354,377.147,-28.6717,48.2047,49.6482,58.639
1980-11-05 08:28:58,1,-16.1857,-4.07143,12.1286,0.611455,1,1,120473.0,189335.0,1701,0.62418932,-6.491291,277.13788,96.78241,20.9466,376.73,-44.332,55.0327,44.5968,55.908
1980-11-05 08:30:19,1,-14.6625,-4.225,13.1875,0.490217,1,1,118742.0,203116.0,1701,0.62417334,-6.4914246,277.1272,96.783432,22.244,384.731,-42.15,55.8922,44.2752,57.9068
1980-11-05 08:31:40,1,-12.4375,3.4625,12.1375,4.13153,1,1,166258.0,243794.0,1701,0.6241653,-6.4914913,277.11597,96.783936,23.0057,391.046,-51.6424,56.1252,52.3901,63.4409
1980-11-05 08:33:01,1,-13.1571,5.52857,11.7143,0.944155,1,1,151573.0,246511.0,1701,0.62414926,-6.4916258,277.10138,96.784958,24.6658,392.092,-10.0913,49.4612,50.0229,63.7934
1980-11-05 08:34:22,1,-14.4,1.1375,13.1625,1.09986,1,1,146867.0,244002.0,1701,0.62414128,-6.4916925,277.09015,96.785461,23.7868,390.907,-23.8822,54.764,49.2402,63.468
1980-11-05 08:35:43,1,-14.0125,6.175,10.4125,1.12208,1,1,121344.0,287315.0,1701,0.62413323,-6.4917593,277.07895,96.78598,26.0883,387.072,-12.02,45.1977,44.7576,68.8711
1980-11-05 08:37:04,1,-15.6571,3.57143,10.4429,0.657764,1,1,133007.0,248515.0,1701,0.62411726,-6.4918928,277.06824,96.786987,23.8492,383.814,-24.605,47.9759,46.8592,64.0523
1980-11-05 08:38:25,1,-15.8714,3.77143,10.3286,0.667924,1,1,128650.0,267904.0,1701,0.62410921,-6.4919596,277.05704,96.787506,25.6533,382.056,-19.2488,48.3439,46.0853,66.504
1980-11-05 08:39:45,1,-15.625,4.6125,10.125,1.1736,1,1,155455.0,273306.0,1701,0.62410122,-6.4920273,277.04584,96.78801,25.8201,387.198,-17.3293,48.7126,50.6594,67.1711
1980-11-05 08:43:48,-1,nan,nan,nan,nan,1,3,nan,nan,1701,0.62406915,-6.4922943,277.00882,96.790054,nan,378.264,-33.8115,42.496,nan,nan
1980-11-05 08:45:10,1,-19.6,1.04286,7.67143,2.08845,1,1,148547.0,228037.0,1701,0.62405312,-6.4924288,276.99811,96.791061,24.7496,371.863,-22.634,35.9409,49.5211,61.3565
1980-11-05 08:46:31,1,-20.3143,-1.97143,6.87143,0.797957,1,1,110231.0,220967.0,1701,0.62404513,-6.4924955,276.98691,96.79158,23.9812,367.097,-32.8348,32.473,42.6588,60.3979
1980-11-05 08:50:33,-1,nan,nan,nan,nan,1,3,nan,nan,1701,0.62401307,-6.4927635,276.94986,96.79361,nan,363.531,-33.275,28.3788,nan,nan
1980-11-05 08:51:54,1,-21.2286,1.85714,3.44286,0.935687,1,1,119771.0,244625.0,1701,0.62400502,-6.4928303,276.93866,96.794113,24.5097,369.759,-23.1078,26.7457,44.4667,63.549
1980-11-05 08:58:39,-1,nan,nan,nan,nan,1,3,nan,nan,1701,0.62394893,-6.4932985,276.87973,96.797684,nan,368.352,-20.8895,31.4689,nan,nan
1980-11-05 09:00:00,1,-18.7,3.25714,5.44286,1.22791,1,1,149828.0,264906.0,1701,0.62393296,-6.493433,276.86902,96.798706,26.7964,371.223,-21.223,25.2451,49.7341,66.1307
1980-11-05 09:01:22,1,-17.2857,3.77143,8.05714,0.789213,1,1,146450.0,299192.0,1701,0.62392491,-6.4934998,276.85782,96.79921,29.8059,377.278,-20.7505,36.5923,49.1702,70.2801
1980-11-05 09:02:43,1,-17.5875,4.6875,7.2,0.353111,1,1,135766.0,308076.0,1701,0.62391686,-6.4935665,276.84659,96.799713,29.0952,377.721,-17.5641,34.1552,47.3428,71.316
1980-11-05 09:04:04,1,-18.4286,4.58571,5.72857,0.652155,1,1,128012.0,287893.0,1701,0.62390083,-6.4937,276.83591,96.800735,29.0211,375.48,-15.7807,29.7865,45.9709,68.9403
1980-11-05 09:05:25,1,-16.9375,5.05,7.65,0.569951,1,1,124485.0,293598.0,1701,0.62389284,-6.4937668,276.8208,96.801254,26.8472,379.199,-14.3865,37.0183,45.3332,69.6201
1980-11-05 09:06:46,1,-17.9,6.3,4.64286,0.949973,1,1,139552.0,286910.0,1701,0.6238848,-6.4938335,276.80957,96.801758,29.2255,374.596,-13.5562,26.5694,47.9984,68.8226
1980-11-05 09:08:07,1,-16.2,7.68571,4.82857,3.27638,1,1,151311.0,278236.0,1701,0.62386876,-6.4939671,276.79889,96.80278,29.4592,380.081,-7.419,11.0054,49.9797,67.7742
1980-11-05 09:09:28,1,-16.8,8.42857,5.75714,0.380118,1,1,129518.0,300012.0,1701,0.62386078,-6.4940338,276.78769,96.803299,30.193,382.442,-7.12544,28.2831,46.2405,70.3764
1980-11-05 09:10:49,1,-17.0286,7.72857,6.17143,0.389662,1,1,129577.0,286001.0,1701,0.62385273,-6.4941006,276.77646,96.803802,28.5256,383.071,-10.2943,28.9971,46.2511,68.7134
1980-11-05 09:12:10,1,-16.9714,7.72857,6.35714,0.487811,1,1,124415.0,290942.0,1701,0.6238367,-6.4942341,276.76578,96.804825,27.1582,379.182,-8.87389,31.2409,45.3204,69.3044
1980-11-05 09:13:31,1,-17.3714,7.75714,4.98571,0.311677,1,1,137324.0,296130.0,1701,0.62382865,-6.4943008,276.75458,96.805344,28.7494,378.617,-11.7514,23.5791,47.6137,69.9196
1980-11-05 09:14:52,1,-17.2286,5.2,6.94286,1.71011,1,1,157803.0,270807.0,1701,0.62382066,-6.4943676,276.73944,96.805847,29.2335,379.602,-21.8922,41.1992,51.0405,66.8633
1980-11-05 09:16:13,1,-16.775,7.8875,5.8375,0.758494,1,1,163784.0,276781.0,1701,0.62380463,-6.4945021,276.72876,96.80687,28.739,382.833,-11.3962,29.0455,51.9989,67.5968
1980-11-05 09:17:34,1,-15.6857,10.8429,3.37143,1.01559,1,1,152361.0,260929.0,1701,0.62379658,-6.4945688,276.71756,96.807388,26.946,385.477,-3.74421,26.9974,50.1528,65.6325
1980-11-05 09:18:55,1,-15.875,10.7625,3.9625,0.840573,1,1,128859.0,279479.0,1701,0.6237886,-6.4946356,276.70633,96.807892,28.0055,382.992,-4.40865,23.29,46.1228,67.9255
1980-11-05 09:21:37,-1,nan,nan,nan,nan,1,4,nan,nan,1701,0.62376451,-6.4948359,276.68445,96.809433,nan,nan,nan,nan,nan,nan
1980-11-05 09:22:57,1,-17.85,8.6,-0.3,0.206155,1,1,143037.0,261928.0,1701,0.62375647,-6.4949026,276.66931,96.809937,29.1239,375.328,-10.1223,15.1661,48.594,65.758
1980-11-05 09:24:18,1,-16.8,10.2143,1.44286,0.958102,1,1,130767.0,272919.0,1701,0.62374043,-6.4950361,276.65863,96.810959,26.9224,380.815,-7.44376,20.4887,46.4629,67.1236
1980-11-05 09:25:39,1,-16.8,9.9125,0.05,0.906142,1,1,140644.0,275992.0,1701,0.62373245,-6.4951029,276.64743,96.811478,29.6963,376.934,-10.9833,18.4487,48.1858,67.5004
1980-11-05 09:27:00,1,-17.2143,9.41429,4.5,1.14624,1,1,124430.0,256357.0,1701,0.62371641,-6.4952364,276.63672,96.8125,25.0292,382.473,-9.20533,24.3619,45.3232,65.055
1980-11-05 09:28:22,1,-18.6857,7.82857,0.771429,0.999796,1,1,136380.0,286167.0,1701,0.62370837,-6.4953032,276.62552,96.813004,29.0234,378.116,-11.8497,13.9522,47.4497,68.7333
1980-11-05 09:29:43,1,-18.0,9.07143,0.371429,1.98741,1,1,135282.0,255239.0,1701,0.62370038,-6.4953699,276.61432,96.813522,26.8736,377.652,-12.0196,18.7085,47.2583,64.913
1980-11-05 09:31:04,1,-18.3571,8.47143,-1.28571,0.671884,1,1,168141.0,263906.0,1701,0.62368435,-6.4955044,276.5997,96.814529,29.5324,378.143,-10.6297,11.5405,52.686,66.0059
1980-11-05 09:32:25,1,-18.4875,8.875,-1.9625,2.73913,1,1,123393.0,251507.0,1701,0.6236763,-6.4955711,276.5885,96.815048,25.3896,378.116,-11.8279,17.319,45.1339,64.4367
1980-11-05 09:33:46,1,-17.5,9.78571,-0.614286,3.44751,1,1,139768.0,259498.0,1701,0.62366825,-6.4956379,276.57727,96.815552,26.9573,378.637,-14.0144,31.746,48.0354,65.4523
1980-11-05 09:35:07,1,-15.5143,8.51429,-5.55714,6.7075,1,1,150195.0,282955.0,1701,0.62365222,-6.4957714,276.56659,96.816574,30.4933,381.952,-16.4032,-12.8959,49.795,68.3465
1980-11-05 09:36:28,1,-16.4875,13.0625,4.0,0.912928,1,1,113800.0,265844.0,1701,0.62364423,-6.4958382,276.55539,96.817093,25.7193,390.458,-2.88008,28.9818,43.3441,66.2478
1980-11-05 09:43:03,-1,nan,nan,nan,nan,1,4,nan,nan,1701,0.62358809,-6.4963055,276.49646,96.820663,nan,nan,nan,nan,nan,nan
1980-11-05 09:44:33,-1,nan,nan,nan,nan,1,3,nan,nan,1701,0.62358004,-6.4963722,276.48526,96.821182,nan,385.062,-9.62448,7.18813,nan,nan
1980-11-05 09:45:54,1,-18.15,10.575,3.85,0.907951,1,1,140959.0,244145.0,1701,0.62357205,-6.4964399,276.47403,96.821686,30.2404,386.705,-5.39747,32.5395,48.2396,63.4866
1980-11-05 09:47:15,1,-19.0429,9.84286,-0.428571,0.442165,1,1,152675.0,234771.0,1701,0.62355602,-6.4965734,276.45944,96.822708,29.5636,383.446,-5.19218,22.4142,50.2043,62.2559